Weather History for Vancouver, BC

Change the Weather History Date:

Wednesday, May 29, 2013

  Actual Average Record
Temperature  
Mean Temperature 54 °F -  
Max Temperature 56 °F 61 °F 69 °F (1997)
Min Temperature 51 °F 49 °F 46 °F (2006)
Degree Days  
Heating Degree Days 12    
Growing Degree Days 4 (Base 50)    
Moisture  
Dew Point 50 °F    
Average Humidity 88    
Maximum Humidity 94    
Minimum Humidity 82    
Precipitation  
Precipitation 0.08 in - - ()
Sea Level Pressure  
Sea Level Pressure 29.79 in    
Wind  
Wind Speed 6 mph ()    
Max Wind Speed 14 mph    
Max Gust Speed -    
Visibility 14.7 miles    
Events Rain    
Averages and records for this station are not official NWS values.
T = Trace of Precipitation, MM = Missing Value Source: Averaged Metar Reports

Daily Weather History Graph

Daily Weather History Graph

Search for Another Location

Airport:

Trip Planner

Search our weather history database for the weather conditions in past years. The results will help you decide how hot, cold, wet, or windy it might be!

Date:

Astronomy

May. 29, 2013 Rise Set
Actual Time 5:14 AM PDT 9:06 PM PDT
Civil Twilight 4:33 AM PDT 9:47 PM PDT
Nautical Twilight 3:36 AM PDT 10:44 PM PDT
Astronomical Twilight 2:07 AM PDT 12:16 AM PDT
Moon 12:19 AM PDT (5/29) 10:35 AM PDT (5/29)
Length of Visible Light 17h 14m
Length of Day
15h 52m
Waning Gibbous, 72% of the Moon is Illuminated
May 29
Waning Gibbous
May 31
Last Quarter
Jun 8
New
Jun 16
First Quarter
Jun 23
Full

Hourly Weather History & Observations

Time (PDT) Temp. Dew Point Humidity Pressure Visibility Wind Dir Wind Speed Gust Speed Precip Events Conditions
12:00 AM 53.6 °F 50.0 °F 88% 29.77 in 15.0 mi ENE 5.8 mph - N/A   Overcast
12:46 AM 53.6 °F - N/A% - 15.0 mi NNE 3.5 mph - N/A Rain Light Rain
1:00 AM 53.6 °F 50.0 °F 88% 29.76 in 15.0 mi NE 4.6 mph - N/A Rain Light Rain
1:28 AM 53.6 °F - N/A% - 15.0 mi NE 3.5 mph - N/A   Overcast
2:00 AM 53.6 °F 50.0 °F 88% 29.75 in 15.0 mi East 6.9 mph - N/A   Overcast
3:00 AM 51.8 °F 48.2 °F 88% 29.73 in 15.0 mi ESE 9.2 mph - N/A   Overcast
4:00 AM 51.8 °F 48.2 °F 88% 29.72 in 15.0 mi East 4.6 mph - N/A   Overcast
5:00 AM 52 °F 49 °F 85% 29.71 in 15 mi East 4.6 mph - -   Partly Cloudy
5:00 AM 51.8 °F 48.2 °F 88% 29.71 in 15.0 mi ESE 4.6 mph - N/A   Overcast
6:00 AM 51.8 °F 48.2 °F 88% 29.70 in 20.0 mi NE 3.5 mph - N/A   Overcast
7:00 AM 51.8 °F 50.0 °F 94% 29.70 in 20.0 mi SSW 3.5 mph - N/A   Overcast
8:00 AM 53.6 °F 50.0 °F 88% 29.71 in 20.0 mi West 6.9 mph - N/A   Overcast
8:10 AM 53.6 °F - N/A% - 20.0 mi West 4.6 mph - N/A   Overcast
8:47 AM 53.6 °F - N/A% - 15.0 mi WSW 6.9 mph - N/A Rain Light Rain
9:00 AM 53.6 °F 50.0 °F 88% 29.72 in 15.0 mi WSW 6.9 mph - N/A Rain Light Rain
9:27 AM 53.6 °F - N/A% - 15.0 mi WNW 8.1 mph - N/A Rain Light Rain
9:38 AM 53.6 °F - N/A% - 15.0 mi WNW 9.2 mph - N/A Rain Light Rain
10:00 AM 55.4 °F 51.8 °F 88% 29.73 in 15.0 mi WNW 11.5 mph - N/A Rain Light Rain
11:00 AM 55 °F 51 °F 83% 29.74 in 15 mi WNW 11.5 mph - - Rain Light Rain
11:00 AM 55.4 °F 51.8 °F 88% 29.74 in 15.0 mi WNW 11.5 mph - N/A Rain Light Rain
11:20 AM 55.4 °F - N/A% - 12.0 mi WNW 12.7 mph - N/A Rain Light Rain
12:00 PM 55.4 °F 51.8 °F 88% 29.76 in 12.0 mi WNW 11.5 mph - N/A Rain Light Rain
12:04 PM 55.4 °F - N/A% - 12.0 mi WNW 12.7 mph - N/A Rain Light Rain
12:51 PM 55.4 °F - N/A% - 15.0 mi WNW 13.8 mph - N/A Rain Light Rain
1:00 PM 55.4 °F 51.8 °F 88% 29.78 in 15.0 mi WNW 11.5 mph - N/A Rain Light Rain
1:34 PM 55.4 °F - N/A% - 15.0 mi WNW 9.2 mph - N/A Rain Light Rain
1:42 PM 55.4 °F - N/A% - 15.0 mi West 9.2 mph - N/A Rain Light Rain
2:00 PM 55.4 °F 51.8 °F 88% 29.79 in 12.0 mi West 8.1 mph - N/A Rain Light Rain
3:00 PM 53.6 °F 50.0 °F 88% 29.81 in 10.0 mi West 5.8 mph - N/A Rain Light Rain
3:18 PM 55.4 °F - N/A% - 12.0 mi West 4.6 mph - N/A Rain Light Rain
4:00 PM 55.4 °F 51.8 °F 88% 29.83 in 12.0 mi West 4.6 mph - N/A Rain Light Rain
4:27 PM 55.4 °F - N/A% - 15.0 mi West 8.1 mph - N/A Rain Light Rain
5:00 PM 54 °F 51 °F 85% 29.83 in 15 mi West 5.8 mph - - Rain Light Rain
5:00 PM 53.6 °F 50.0 °F 88% 29.83 in 15.0 mi West 5.8 mph - N/A Rain Light Rain
5:56 PM 53.6 °F - N/A% - 15.0 mi West 5.8 mph - N/A Rain Light Rain
6:00 PM 55.4 °F 50.0 °F 82% 29.84 in 15.0 mi West 4.6 mph - N/A Rain Light Rain
6:13 PM 53.6 °F - N/A% - 15.0 mi West 4.6 mph - N/A Rain Light Rain
6:41 PM 53.6 °F - N/A% - 12.0 mi WSW 6.9 mph - N/A Rain Light Rain
7:00 PM 53.6 °F 51.8 °F 94% 29.86 in 10.0 mi SW 6.9 mph - N/A Rain Light Rain
8:00 PM 53.6 °F 50.0 °F 88% 29.87 in 12.0 mi SSW 4.6 mph - N/A Rain Light Rain
9:00 PM 51.8 °F 50.0 °F 94% 29.88 in 15.0 mi SW 4.6 mph - N/A Rain Light Rain
9:48 PM 53.6 °F - N/A% - 15.0 mi South 3.5 mph - N/A   Overcast
10:00 PM 53.6 °F 50.0 °F 88% 29.90 in 15.0 mi South 4.6 mph - N/A   Overcast
11:00 PM 53 °F 49 °F 82% 29.91 in 15 mi SSE 4.6 mph - -   Partly Cloudy
11:00 PM 53.6 °F 50.0 °F 88% 29.91 in 15.0 mi South 4.6 mph - N/A   Overcast